User: anonymous   Login
Location: Dentlein
(49.1477°N, 10.4231°E)
Time: 10:34:08
(UTC+00:00)
Language:

Cosmos 1825 - Orbit

View from above orbital plane
View from above orbital plane
View from above satellite
View from above satellite

Ground track
Ground track

The orbit data is extracted from the following two-line orbital elements,

1 17566U 87024A   24204.13140559  .00031168  00000-0  69916-3 0  9999
2 17566  82.4926 222.7023 0004843 124.6711 235.4993 15.43235194 48360
Epoch (UTC): 22 July 2024 03:09:13
Eccentricity: 0.0004843
inclination: 82.4926°
perigee height: 433 km
apogee height: 440 km
right ascension of ascending node: 222.7023°
argument of perigee: 124.6711°
revolutions per day: 15.43235194
mean anomaly at epoch: 235.4993°
orbit number at epoch: 4836

The dashed part of the orbit path shows where the satellite is in the earth's shadow,  

DLR